W5CGC Weather Reports


Display with metric or nautical units.
time (UTC)temp
F
wind
direction
speed
MPH
gust
MPH
rain 1hr
in
rain 24hr
in
rain mn
in
humidity
%
barometer
mb
20260904203043 99 14 2.0 11.0 0.00 0.00 0.00 27 1011.7
20260904201539 99 27 2.0 10.0 0.00 0.00 0.00 28 1012.0
20260904200041 98 34 2.0 7.0 0.00 0.00 0.00 29 1012.3
20260904194543 98 60 2.0 12.0 0.00 0.00 0.00 30 1012.4
20260904193122 98 50 2.0 6.0 0.00 0.00 0.00 31 1012.5
20260904191538 97 11 1.0 7.0 0.00 0.00 0.00 32 1012.7
20260904190040 97 20 2.0 10.0 0.00 0.00 0.00 31 1012.9
20260904184542 97 88 1.0 3.0 0.00 0.00 0.00 32 1013.1
20260904183047 96 284 3.0 11.0 0.00 0.00 0.00 33 1013.4
20260904181546 95 360 2.0 10.0 0.00 0.00 0.00 33 1013.6
20260904180040 95 36 2.0 8.0 0.00 0.00 0.00 33 1013.8
20260904174552 94 42 2.0 9.0 0.00 0.00 0.00 34 1013.8
20260904173043 93 44 2.0 6.0 0.00 0.00 0.00 37 1014.0
20260904171555 93 297 2.0 8.0 0.00 0.00 0.00 38 1014.1
20260904170041 92 131 1.0 3.0 0.00 0.00 0.00 39 1014.3
20260904164548 91 46 1.0 5.0 0.00 0.00 0.00 42 1014.5
20260904163040 90 0 1.0 4.0 0.00 0.00 0.00 45 1014.5
20260904161538 89 115 1.0 8.0 0.00 0.00 0.00 47 1014.5
20260904160042 87 176 1.0 5.0 0.00 0.00 0.00 51 1014.5
20260904154541 86 300 1.0 6.0 0.00 0.00 0.00 53 1014.4
20260904153040 85 0 1.0 6.0 0.00 0.00 0.00 56 1014.4
20260904151543 84 148 0.0 5.0 0.00 0.00 0.00 59 1014.4
20260904150041 83 18 1.0 7.0 0.00 0.00 0.00 61 1014.5
20260904144541 82 70 1.0 7.0 0.00 0.00 0.00 63 1014.5
20260904143045 81 36 1.0 6.0 0.00 0.00 0.00 64 1014.4
20260904141542 81 225 1.0 6.0 0.00 0.00 0.00 65 1014.4
20260904140038 80 0 2.0 5.0 0.00 0.00 0.00 66 1014.3
20260904134546 80 0 0.0 1.0 0.00 0.00 0.00 66 1014.2
20260904133041 79 0 1.0 3.0 0.00 0.00 0.00 67 1014.1
20260904131554 79 0 0.0 1.0 0.00 0.00 0.00 67 1014.0
20260904130042 79 0 0.0 4.0 0.00 0.00 0.00 67 1013.7
20260904124538 78 46 0.0 4.0 0.00 0.00 0.00 68 1013.7
20260904123041 78 64 0.0 5.0 0.00 0.00 0.00 68 1013.6
20260904121540 78 0 0.0 1.0 0.00 0.00 0.00 67 1013.6
20260904120048 78 0 0.0 3.0 0.00 0.00 0.00 67 1013.4
20260904114537 78 0 0.0 0.0 0.00 0.00 0.00 67 1013.3
20260904113041 79 0 0.0 0.0 0.00 0.00 0.00 66 1013.3
20260904111544 79 0 0.0 0.0 0.00 0.00 0.00 66 1013.2
20260904110040 79 0 0.0 4.0 0.00 0.00 0.00 66 1013.1
20260904104547 79 0 0.0 2.0 0.00 0.00 0.00 66 1013.0
20260904103050 79 0 0.0 7.0 0.00 0.00 0.00 66 1013.0
20260904101541 79 0 0.0 3.0 0.00 0.00 0.00 66 1012.8
20260904100042 79 0 0.0 5.0 0.00 0.00 0.00 66 1012.6
20260904094541 79 86 0.0 3.0 0.00 0.00 0.00 65 1012.6
20260904093045 79 43 0.0 4.0 0.00 0.00 0.00 65 1012.7
20260904091544 79 0 0.0 4.0 0.00 0.00 0.00 65 1012.7
20260904090042 79 146 0.0 2.0 0.00 0.00 0.00 64 1012.7
20260904084539 79 59 0.0 2.0 0.00 0.00 0.00 64 1012.6
20260904083103 79 79 0.0 2.0 0.00 0.00 0.00 64 1012.6
20260904081543 79 0 0.0 3.0 0.00 0.00 0.00 63 1012.7
20260904080043 79 0 0.0 4.0 0.00 0.00 0.00 63 1012.5
20260904074559 79 65 0.0 2.0 0.00 0.00 0.00 62 1012.7
20260904073040 80 0 0.0 3.0 0.00 0.00 0.00 62 1012.7
20260904071544 80 34 0.0 5.0 0.00 0.00 0.00 61 1012.8
20260904070042 80 0 1.0 5.0 0.00 0.00 0.00 61 1012.8
20260904064541 80 89 1.0 6.0 0.00 0.00 0.00 60 1012.9
20260904063047 80 44 1.0 9.0 0.00 0.00 0.00 60 1013.0
20260904061541 80 39 1.0 4.0 0.00 0.00 0.00 59 1013.1
20260904060041 80 37 0.0 6.0 0.00 0.00 0.00 58 1013.2
20260904054545 80 0 0.0 3.0 0.00 0.00 0.00 57 1013.0
20260904053042 80 0 0.0 7.0 0.00 0.00 0.00 56 1013.1
20260904051542 80 34 1.0 3.0 0.00 0.00 0.00 55 1013.0
20260904050038 80 0 0.0 1.0 0.00 0.00 0.00 54 1013.0
20260904044549 81 0 0.0 5.0 0.00 0.00 0.00 54 1012.8
20260904043037 81 15 0.0 3.0 0.00 0.00 0.00 54 1012.8
20260904041543 81 19 1.0 6.0 0.00 0.00 0.00 54 1012.8
20260904040100 81 0 0.0 3.0 0.00 0.00 0.00 53 1013.0
20260904034543 82 237 1.0 7.0 0.00 0.00 0.00 53 1013.0
20260904033040 82 0 0.0 7.0 0.00 0.00 0.00 53 1013.0
20260904031538 82 0 0.0 5.0 0.00 0.00 0.00 52 1013.0
20260904030043 83 8 0.0 6.0 0.00 0.00 0.00 52 1012.8
20260904024543 83 38 0.0 6.0 0.00 0.00 0.00 53 1012.7
20260904023047 82 23 0.0 6.0 0.00 0.00 0.00 56 1012.4
20260904021540 81 12 2.0 7.0 0.00 0.00 0.00 59 1012.2
20260904020044 83 33 1.0 8.0 0.00 0.00 0.00 55 1011.9
20260904014612 85 185 2.0 11.0 0.00 0.00 0.00 49 1011.5
20260904013042 86 196 0.0 7.0 0.00 0.00 0.00 45 1011.3
20260904011544 87 18 0.0 6.0 0.00 0.00 0.00 45 1011.1
20260904010049 87 12 2.0 6.0 0.00 0.00 0.00 45 1010.8
20260904004545 88 30 0.0 8.0 0.00 0.00 0.00 45 1010.7
20260904003046 89 243 0.0 6.0 0.00 0.00 0.00 44 1010.7
20260904001546 89 18 2.0 9.0 0.00 0.00 0.00 43 1010.7
20260904000041 90 25 1.0 8.0 0.00 0.00 0.00 43 1010.6
20260903234542 90 30 2.0 7.0 0.00 0.00 0.00 44 1010.5
20260903233044 90 358 0.0 11.0 0.00 0.00 0.00 45 1010.4
20260903231545 90 13 2.0 9.0 0.00 0.00 0.00 44 1010.3
20260903230049 91 271 2.0 8.0 0.00 0.00 0.00 44 1010.2
20260903224540 91 56 1.0 9.0 0.00 0.00 0.00 43 1010.3
20260903223053 92 261 2.0 6.0 0.00 0.00 0.00 43 1010.2
20260903221539 92 252 2.0 10.0 0.00 0.00 0.00 42 1010.2
20260903220052 92 28 2.0 9.0 0.00 0.00 0.00 41 1010.2
20260903214540 92 8 1.0 6.0 0.00 0.00 0.00 42 1010.4
20260903213042 93 32 0.0 9.0 0.00 0.00 0.00 42 1010.4
20260903211543 92 36 4.0 10.0 0.00 0.00 0.00 43 1010.5
20260903210049 92 223 1.0 7.0 0.00 0.00 0.00 44 1010.8
20260903204542 92 263 0.0 8.0 0.00 0.00 0.00 44 1011.0